| time (UTC) | temp C | wind direction | speed KPH | gust KPH | rain 1hr cm | rain 24hr cm | rain mn cm | humidity % | barometer mb |
| 20260504184505 | 21 | 188 | 9.7 | 19.3 | 0.00 | 0.00 | 0.00 | 54 | 1009.8 |
| 20260504183002 | 20 | 179 | 8.0 | 17.7 | 0.00 | 0.00 | 0.00 | 54 | 1010.1 |
| 20260504181601 | 20 | 95 | 4.8 | 19.3 | 0.00 | 0.00 | 0.00 | 58 | 1010.0 |
| 20260504180100 | 19 | 158 | 9.7 | 17.7 | 0.00 | 0.00 | 0.00 | 56 | 1010.2 |
| 20260504174552 | 18 | 149 | 8.0 | 19.3 | 0.00 | 0.00 | 0.00 | 60 | 1010.5 |
| 20260504173050 | 18 | 153 | 8.0 | 16.1 | 0.00 | 0.00 | 0.00 | 59 | 1010.6 |
| 20260504171552 | 18 | 150 | 6.4 | 19.3 | 0.00 | 0.00 | 0.00 | 62 | 1010.7 |
| 20260504081515 | 4 | 186 | 0.0 | 0.0 | 0.00 | 0.00 | 0.00 | 71 | 1012.8 |
| 20260504044555 | 5 | 139 | 0.0 | 0.0 | 0.00 | 0.00 | 0.00 | 77 | 1013.7 |
| 20260504043155 | 5 | 139 | 0.0 | 0.0 | 0.00 | 0.00 | 0.00 | 77 | 1013.6 |
| 20260504041551 | 5 | 140 | 0.0 | 0.0 | 0.00 | 0.00 | 0.00 | 76 | 1013.3 |
| 20260504040110 | 5 | 139 | 0.0 | 0.0 | 0.00 | 0.00 | 0.00 | 75 | 1013.4 |
| 20260504034547 | 5 | 139 | 0.0 | 0.0 | 0.00 | 0.00 | 0.00 | 75 | 1013.4 |
| 20260504033046 | 5 | 139 | 0.0 | 0.0 | 0.00 | 0.00 | 0.00 | 74 | 1013.2 |
| 20260504031546 | 5 | 139 | 0.0 | 0.0 | 0.00 | 0.00 | 0.00 | 72 | 1013.3 |
| 20260504030046 | 6 | 139 | 0.0 | 0.0 | 0.00 | 0.00 | 0.00 | 71 | 1013.3 |
| 20260504024548 | 6 | 140 | 0.0 | 0.0 | 0.00 | 0.00 | 0.00 | 69 | 1013.2 |
| 20260504023053 | 6 | 140 | 0.0 | 0.0 | 0.00 | 0.00 | 0.00 | 69 | 1013.2 |
| 20260504021547 | 7 | 139 | 0.0 | 0.0 | 0.00 | 0.00 | 0.00 | 65 | 1013.0 |
| 20260504020046 | 7 | 139 | 0.0 | 0.0 | 0.00 | 0.00 | 0.00 | 64 | 1013.1 |
| 20260504014555 | 7 | 141 | 0.0 | 1.6 | 0.00 | 0.00 | 0.00 | 63 | 1012.7 |
| 20260504013042 | 8 | 141 | 0.0 | 0.0 | 0.00 | 0.00 | 0.00 | 57 | 1012.5 |
| 20260504011542 | 8 | 141 | 0.0 | 1.6 | 0.00 | 0.00 | 0.00 | 57 | 1012.7 |
| 20260504010049 | 9 | 143 | 0.0 | 0.0 | 0.00 | 0.00 | 0.00 | 55 | 1012.7 |
| 20260504004545 | 10 | 142 | 0.0 | 0.0 | 0.00 | 0.00 | 0.00 | 50 | 1012.6 |
| 20260504003039 | 12 | 143 | 0.0 | 1.6 | 0.00 | 0.00 | 0.00 | 44 | 1012.4 |
| 20260504001555 | 12 | 172 | 0.0 | 1.6 | 0.00 | 0.00 | 0.00 | 40 | 1012.3 |
| 20260504000038 | 13 | 139 | 0.0 | 3.2 | 0.00 | 0.00 | 0.00 | 37 | 1012.2 |
| 20260503234538 | 15 | 233 | 1.6 | 6.4 | 0.00 | 0.00 | 0.00 | 34 | 1011.8 |
| 20260503233040 | 16 | 174 | 0.0 | 3.2 | 0.00 | 0.00 | 0.00 | 33 | 1011.9 |
| 20260503231535 | 16 | 249 | 0.0 | 6.4 | 0.00 | 0.00 | 0.00 | 34 | 1012.2 |
| 20260503230035 | 16 | 248 | 1.6 | 9.7 | 0.00 | 0.00 | 0.00 | 35 | 1012.1 |
| 20260503224531 | 16 | 243 | 3.2 | 12.9 | 0.00 | 0.00 | 0.00 | 34 | 1012.3 |
| 20260503223030 | 16 | 117 | 4.8 | 16.1 | 0.00 | 0.00 | 0.00 | 35 | 1012.5 |
| 20260503221528 | 16 | 150 | 3.2 | 8.0 | 0.00 | 0.00 | 0.00 | 35 | 1012.5 |
| 20260503220028 | 16 | 100 | 0.0 | 8.0 | 0.00 | 0.00 | 0.00 | 33 | 1012.6 |
| 20260503214526 | 16 | 167 | 3.2 | 9.7 | 0.00 | 0.00 | 0.00 | 32 | 1012.7 |
| 20260503213026 | 16 | 240 | 3.2 | 9.7 | 0.00 | 0.00 | 0.00 | 33 | 1012.8 |
| 20260503211523 | 16 | 129 | 4.8 | 12.9 | 0.00 | 0.00 | 0.00 | 30 | 1012.9 |
| 20260503210021 | 17 | 331 | 3.2 | 9.7 | 0.00 | 0.00 | 0.00 | 34 | 1013.0 |
| 20260503204525 | 16 | 235 | 6.4 | 14.5 | 0.00 | 0.00 | 0.00 | 28 | 1013.2 |
| 20260503203015 | 16 | 297 | 0.0 | 8.0 | 0.00 | 0.00 | 0.00 | 32 | 1013.5 |
| 20260503201512 | 16 | 241 | 3.2 | 12.9 | 0.00 | 0.00 | 0.00 | 29 | 1013.6 |
| 20260503200012 | 15 | 39 | 1.6 | 9.7 | 0.00 | 0.00 | 0.00 | 29 | 1014.0 |
| 20260503194510 | 16 | 329 | 1.6 | 9.7 | 0.00 | 0.00 | 0.00 | 33 | 1014.3 |
| 20260503193022 | 16 | 193 | 0.0 | 12.9 | 0.00 | 0.00 | 0.00 | 33 | 1014.6 |
| 20260503191505 | 15 | 153 | 4.8 | 16.1 | 0.00 | 0.00 | 0.00 | 34 | 1015.0 |
| 20260503190004 | 15 | 158 | 3.2 | 16.1 | 0.00 | 0.00 | 0.00 | 34 | 1015.3 |